| time (UTC) | temp F | wind direction | speed knots | gust knots | rain 1hr in | rain 24hr in | rain mn in | humidity % | barometer mb |
| 20260831131600 | 74 | 214 | 0.9 | 2.6 | 0.00 | 0.00 | 0.00 | 94 | 1021.0 |
| 20260831130116 | 72 | 0 | 0.0 | 0.9 | 0.00 | 0.00 | 0.00 | 96 | 1021.0 |
| 20260831124555 | 71 | 0 | 0.0 | 0.0 | 0.00 | 0.00 | 0.00 | 97 | 1021.0 |
| 20260831123103 | 69 | 0 | 0.0 | 0.0 | 0.00 | 0.00 | 0.00 | 96 | 1021.0 |
| 20260831121601 | 68 | 0 | 0.0 | 0.9 | 0.00 | 0.00 | 0.00 | 96 | 1021.1 |
| 20260831120057 | 67 | 0 | 0.0 | 0.0 | 0.00 | 0.00 | 0.00 | 96 | 1021.0 |
| 20260831114556 | 66 | 0 | 0.0 | 0.0 | 0.00 | 0.00 | 0.00 | 95 | 1021.1 |
| 20260831113052 | 66 | 0 | 0.0 | 0.0 | 0.00 | 0.00 | 0.00 | 95 | 1021.0 |
| 20260831111612 | 66 | 0 | 0.0 | 0.0 | 0.00 | 0.00 | 0.00 | 95 | 1021.0 |
| 20260831110134 | 66 | 0 | 0.0 | 0.0 | 0.00 | 0.00 | 0.00 | 95 | 1020.9 |
| 20260831104551 | 66 | 0 | 0.0 | 0.0 | 0.00 | 0.00 | 0.00 | 95 | 1021.0 |
| 20260831103059 | 66 | 0 | 0.0 | 0.0 | 0.00 | 0.00 | 0.00 | 95 | 1020.8 |
| 20260831101552 | 66 | 0 | 0.0 | 0.0 | 0.00 | 0.00 | 0.00 | 95 | 1020.7 |
| 20260831100103 | 66 | 0 | 0.0 | 0.0 | 0.00 | 0.00 | 0.00 | 95 | 1020.7 |
| 20260831094624 | 66 | 0 | 0.0 | 0.0 | 0.00 | 0.00 | 0.00 | 95 | 1020.6 |
| 20260831093054 | 66 | 0 | 0.0 | 0.0 | 0.00 | 0.00 | 0.00 | 95 | 1020.6 |
| 20260831091555 | 67 | 0 | 0.0 | 0.0 | 0.00 | 0.00 | 0.00 | 95 | 1020.5 |
| 20260831090054 | 67 | 0 | 0.0 | 0.0 | 0.00 | 0.00 | 0.00 | 95 | 1020.4 |
| 20260831084603 | 67 | 0 | 0.0 | 0.0 | 0.00 | 0.00 | 0.00 | 95 | 1020.5 |
| 20260831083057 | 67 | 0 | 0.0 | 0.0 | 0.00 | 0.00 | 0.00 | 95 | 1020.4 |
| 20260831081632 | 67 | 0 | 0.0 | 0.0 | 0.00 | 0.00 | 0.00 | 94 | 1020.4 |
| 20260831080100 | 67 | 0 | 0.0 | 0.0 | 0.00 | 0.00 | 0.00 | 94 | 1020.3 |
| 20260831074602 | 67 | 0 | 0.0 | 0.0 | 0.00 | 0.00 | 0.00 | 94 | 1020.3 |
| 20260831073156 | 68 | 0 | 0.0 | 0.0 | 0.00 | 0.00 | 0.00 | 94 | 1020.4 |
| 20260831071553 | 67 | 0 | 0.0 | 0.0 | 0.00 | 0.00 | 0.00 | 94 | 1020.5 |
| 20260831070052 | 68 | 0 | 0.0 | 0.0 | 0.00 | 0.00 | 0.00 | 94 | 1020.5 |
| 20260831064602 | 68 | 0 | 0.0 | 0.0 | 0.00 | 0.00 | 0.00 | 94 | 1020.6 |
| 20260831063056 | 68 | 0 | 0.0 | 0.0 | 0.00 | 0.00 | 0.00 | 94 | 1020.7 |
| 20260831061554 | 68 | 0 | 0.0 | 0.0 | 0.00 | 0.00 | 0.00 | 94 | 1020.7 |
| 20260831060115 | 69 | 0 | 0.0 | 0.0 | 0.00 | 0.00 | 0.00 | 94 | 1020.8 |
| 20260831054554 | 69 | 0 | 0.0 | 0.0 | 0.00 | 0.00 | 0.00 | 94 | 1020.6 |
| 20260831053052 | 69 | 0 | 0.0 | 0.0 | 0.00 | 0.00 | 0.00 | 94 | 1020.6 |
| 20260831051555 | 69 | 0 | 0.0 | 0.0 | 0.00 | 0.00 | 0.00 | 94 | 1020.7 |
| 20260831050137 | 69 | 0 | 0.0 | 0.0 | 0.00 | 0.00 | 0.00 | 94 | 1020.6 |
| 20260831044551 | 69 | 0 | 0.0 | 0.0 | 0.00 | 0.00 | 0.00 | 94 | 1020.6 |
| 20260831043100 | 69 | 0 | 0.0 | 0.0 | 0.00 | 0.00 | 0.00 | 93 | 1020.7 |
| 20260831041555 | 70 | 0 | 0.0 | 0.0 | 0.00 | 0.00 | 0.00 | 93 | 1020.8 |
| 20260831034556 | 70 | 0 | 0.0 | 0.0 | 0.00 | 0.00 | 0.00 | 93 | 1020.8 |
| 20260831033052 | 70 | 0 | 0.0 | 0.0 | 0.00 | 0.00 | 0.00 | 93 | 1020.9 |
| 20260831031547 | 70 | 0 | 0.0 | 0.0 | 0.00 | 0.00 | 0.00 | 92 | 1021.1 |
| 20260831030059 | 71 | 0 | 0.0 | 0.0 | 0.00 | 0.00 | 0.00 | 93 | 1021.0 |
| 20260831024554 | 71 | 0 | 0.0 | 0.0 | 0.00 | 0.00 | 0.00 | 92 | 1021.0 |
| 20260831023056 | 71 | 0 | 0.0 | 0.0 | 0.00 | 0.00 | 0.00 | 92 | 1021.1 |
| 20260831021558 | 72 | 0 | 0.0 | 0.0 | 0.00 | 0.00 | 0.00 | 91 | 1021.1 |
| 20260831020055 | 72 | 0 | 0.0 | 0.0 | 0.00 | 0.00 | 0.00 | 91 | 1020.9 |
| 20260831014553 | 72 | 0 | 0.0 | 0.0 | 0.00 | 0.00 | 0.00 | 90 | 1020.9 |
| 20260831013100 | 73 | 0 | 0.0 | 0.0 | 0.00 | 0.00 | 0.00 | 90 | 1020.8 |
| 20260831011552 | 73 | 0 | 0.0 | 0.0 | 0.00 | 0.00 | 0.00 | 89 | 1020.7 |
| 20260831004555 | 75 | 0 | 0.0 | 0.0 | 0.00 | 0.00 | 0.00 | 87 | 1020.5 |
| 20260831003052 | 76 | 0 | 0.0 | 0.0 | 0.00 | 0.00 | 0.00 | 85 | 1020.3 |
| 20260831001552 | 78 | 0 | 0.0 | 0.0 | 0.00 | 0.00 | 0.00 | 81 | 1020.3 |
| 20260831000104 | 79 | 0 | 0.0 | 0.0 | 0.00 | 0.00 | 0.00 | 78 | 1020.3 |
| 20260830234601 | 80 | 0 | 0.0 | 1.7 | 0.00 | 0.00 | 0.00 | 75 | 1020.2 |
| 20260830233102 | 81 | 0 | 0.0 | 1.7 | 0.00 | 0.00 | 0.00 | 73 | 1020.4 |
| 20260830231552 | 82 | 65 | 0.0 | 3.5 | 0.00 | 0.00 | 0.00 | 71 | 1020.4 |
| 20260830230100 | 83 | 17 | 0.0 | 2.6 | 0.00 | 0.00 | 0.00 | 71 | 1020.3 |
| 20260830224553 | 84 | 0 | 0.0 | 2.6 | 0.00 | 0.02 | 0.00 | 68 | 1020.3 |
| 20260830223051 | 86 | 0 | 0.0 | 1.7 | 0.00 | 0.02 | 0.00 | 67 | 1020.2 |
| 20260830221551 | 86 | 0 | 0.9 | 3.5 | 0.00 | 0.02 | 0.00 | 66 | 1020.2 |
| 20260830220105 | 87 | 91 | 0.0 | 1.7 | 0.00 | 0.02 | 0.00 | 64 | 1020.1 |
| 20260830214553 | 87 | 229 | 0.0 | 2.6 | 0.00 | 0.02 | 0.00 | 64 | 1020.1 |
| 20260830213056 | 86 | 92 | 0.0 | 1.7 | 0.00 | 0.02 | 0.00 | 66 | 1020.3 |
| 20260830211555 | 87 | 0 | 0.0 | 3.5 | 0.00 | 0.02 | 0.00 | 65 | 1020.1 |
| 20260830210056 | 86 | 212 | 0.9 | 2.6 | 0.00 | 0.02 | 0.00 | 66 | 1020.2 |
| 20260830204558 | 86 | 105 | 0.9 | 7.0 | 0.00 | 0.02 | 0.00 | 64 | 1020.3 |
| 20260830203059 | 86 | 0 | 0.0 | 3.5 | 0.00 | 0.02 | 0.00 | 68 | 1020.3 |
| 20260830201604 | 84 | 147 | 0.0 | 1.7 | 0.00 | 0.02 | 0.00 | 71 | 1020.5 |
| 20260830194602 | 84 | 102 | 0.0 | 0.9 | 0.00 | 0.02 | 0.00 | 67 | 1020.8 |
| 20260830193058 | 84 | 0 | 0.0 | 0.9 | 0.00 | 0.02 | 0.00 | 69 | 1021.0 |
| 20260830191619 | 85 | 88 | 0.0 | 3.5 | 0.00 | 0.02 | 0.00 | 68 | 1021.3 |
| 20260830190107 | 87 | 0 | 0.0 | 3.5 | 0.00 | 0.02 | 0.00 | 64 | 1021.3 |
| 20260830184559 | 88 | 0 | 0.9 | 2.6 | 0.00 | 0.02 | 0.00 | 62 | 1021.6 |
| 20260830183056 | 87 | 0 | 0.0 | 2.6 | 0.00 | 0.02 | 0.00 | 62 | 1021.9 |
| 20260830181553 | 86 | 27 | 0.0 | 1.7 | 0.00 | 0.02 | 0.00 | 70 | 1022.2 |
| 20260830180056 | 85 | 0 | 0.0 | 1.7 | 0.00 | 0.02 | 0.00 | 66 | 1022.5 |
| 20260830174558 | 85 | 162 | 0.0 | 4.3 | 0.00 | 0.02 | 0.00 | 64 | 1022.7 |
| 20260830173055 | 86 | 85 | 0.0 | 5.2 | 0.00 | 0.02 | 0.00 | 66 | 1022.8 |
| 20260830171553 | 84 | 211 | 0.0 | 1.7 | 0.00 | 0.02 | 0.00 | 67 | 1022.9 |
| 20260830170059 | 83 | 95 | 0.0 | 2.6 | 0.00 | 0.02 | 0.00 | 70 | 1023.2 |
| 20260830164553 | 83 | 109 | 0.0 | 1.7 | 0.00 | 0.02 | 0.00 | 71 | 1023.2 |
| 20260830163058 | 83 | 0 | 0.0 | 1.7 | 0.00 | 0.02 | 0.00 | 69 | 1023.3 |
| 20260830161605 | 82 | 0 | 0.9 | 1.7 | 0.00 | 0.02 | 0.00 | 73 | 1023.6 |
| 20260830160057 | 80 | 0 | 0.0 | 2.6 | 0.00 | 0.02 | 0.00 | 77 | 1023.6 |
| 20260830154607 | 80 | 0 | 0.0 | 0.9 | 0.00 | 0.02 | 0.00 | 77 | 1023.6 |
| 20260830153103 | 80 | 21 | 0.0 | 1.7 | 0.00 | 0.02 | 0.00 | 78 | 1023.6 |
| 20260830151556 | 80 | 0 | 0.0 | 1.7 | 0.00 | 0.02 | 0.00 | 78 | 1023.6 |
| 20260830150052 | 80 | 0 | 0.0 | 2.6 | 0.00 | 0.02 | 0.00 | 79 | 1023.6 |
| 20260830144606 | 79 | 0 | 0.0 | 2.6 | 0.00 | 0.02 | 0.00 | 83 | 1023.6 |
| 20260830143100 | 77 | 35 | 0.0 | 2.6 | 0.00 | 0.02 | 0.00 | 85 | 1023.6 |
| 20260830141551 | 76 | 0 | 0.0 | 0.9 | 0.00 | 0.02 | 0.00 | 89 | 1023.6 |
| 20260830134555 | 73 | 0 | 0.0 | 0.9 | 0.00 | 0.02 | 0.00 | 91 | 1023.8 |
| 20260830133102 | 73 | 0 | 0.0 | 0.9 | 0.00 | 0.02 | 0.00 | 92 | 1023.8 |